www.pogodaiklimat.ru

Погода и климат >> Архив погоды >> Великобритания >> London


АРХИВ ПОГОДЫ в London

Время (UTC), дата Ветер
(напр.,м/с)
 
Видим.   Явления Облачность Т
(С)
Тd
(С)
f
(%)
Тe
(С)
Тes
(С)
Комфортность P
(гПа)
Po
(гПа)
Тmin
(С)
Tmax
(С)
R
(мм)
S
(см)
16 20.03 З 8 40 км в посл. час дождь н/о +11.9 +9.2 84 +9 +9 тепло 1002.5 999.5
17 20.03 З 8
{15}
28 км н/о +10.6 +7.2 79 +7 +7 по сезону 1003.2 1000.2
18 20.03 З 6 50 км в посл. час дождь н/о +9.7 +6.3 79 +6 +6 по сезону 1003.7 1000.7 +12.8 1
19 20.03 З 7 50 км н/о +9.2 +5.6 78 +5 +5 тепло 1004.2 1001.2
20 20.03 З 7 50 км н/о +8.5 +4.9 78 +4 +4 по сезону 1004.9 1001.9
21 20.03 З 6 50 км н/о +8.2 +4.1 75 +4 +4 по сезону 1005.4 1002.3
22 20.03 З 6 30 км н/о +7.4 +4.3 81 +3 +3 тепло 1005.7 1002.7
23 20.03 ЮЗ 3 30 км н/о +6.7 +4.1 83 +4 +4 по сезону 1006.0 1002.9
00 21.03 ЮЗ 5 35 км н/о +6.4 +4.6 88 +2 +2 по сезону 1006.1 1003.0
01 21.03 З 5 40 км н/о +6.5 +4.3 86 +2 +2 тепло 1006.1 1003.0
02 21.03 З 7 40 км н/о +6.6 +3.7 82 +2 +2 по сезону 1006.3 1003.3
03 21.03 З 7 35 км н/о +6.1 +2.8 79 +1 +1 по сезону 1006.8 1003.8
04 21.03 З 7 25 км н/о +5.2 +2.0 80 0 0 тепло 1007.2 1004.1
05 21.03 З 5 24 км н/о +4.6 +1.9 83 -0 -0 по сезону 1007.8 1004.7
06 21.03 З 5 23 км н/о +3.9 +1.3 83 -1 -1 прохладно 1008.6 1005.5 +3.9
08 21.03 З 6 27 км н/о +5.7 +0.4 69 +1 +1 по сезону 1009.8 1006.7
07 21.03 З 6 30 км н/о +4.3 +0.6 77 -1 -1 прохладно 1009.3 1006.2
09 21.03 З 7 30 км н/о +7.3 +0.9 64 +3 +3 по сезону 1010.2 1007.1
10 21.03 З 7 25 км н/о +8.4 -0.7 53 +4 +4 по сезону 1010.4 1007.4
11 21.03 З 8 35 км н/о +10.1 +0.9 53 +7 +7 по сезону 1010.4 1007.3
12 21.03 З 8 35 км н/о +11.0 -1.3 42 +8 +8 по сезону 1010.4 1007.4
14 21.03 З 8
{14}
35 км н/о +10.1 -1.3 45 +7 +7 тепло 1010.1 1007.0
13 21.03 З 8
{13}
28 км н/о +11.3 -0.7 43 +8 +8 по сезону 1010.3 1007.3
15 21.03 З 7 29 км н/о +10.6 -1.7 42 +8 +8 по сезону 1009.6 1006.6
16 21.03 ЮЗ 7 40 км н/о +10.5 -1.0 45 +8 +8 тепло 1009.6 1006.5
17 21.03 З 5 45 км в посл. час дождь н/о +9.4 +1.5 58 +6 +6 по сезону 1009.7 1006.7
18 21.03 ЮЗ 5 40 км н/о +9.4 +0.9 55 +6 +6 по сезону 1009.7 1006.7 +12.6
20 21.03 ЮЗ 6
{13}
40 км в посл. час дождь н/о +6.7 +2.3 73 +2 +2 по сезону 1010.2 1007.1
19 21.03 ЮЗ 7 30 км н/о +8.3 +0.7 59 +4 +4 по сезону 1010.0 1007.0
21 21.03 Ю 4 30 км слаб. ливневой дождь н/о +6.3 +2.9 79 +3 +3 по сезону 1009.7 1006.6
22 21.03 Ю 4 18 км в посл. час дождь н/о +5.8 +2.7 80 +2 +2 тепло 1009.2 1006.1
23 21.03 Ю 5 19 км н/о +6.1 +2.4 77 +2 +2 по сезону 1008.8 1005.7
00 22.03 ЮВ 4 21 км н/о +5.5 +1.8 77 +2 +2 по сезону 1008.1 1005.0
02 22.03 ЮВ 5 21 км н/о +5.3 +1.8 78 +1 +1 тепло 1006.5 1003.4
01 22.03 ЮВ 5 23 км н/о +5.9 +2.1 77 +2 +2 по сезону 1007.4 1004.3
03 22.03 ЮВ 5 24 км н/о +5.1 +2.1 81 +1 +1 по сезону 1005.7 1002.7
04 22.03 ЮВ 5 21 км н/о +5.5 +2.4 80 +1 +1 тепло 1005.1 1002.0
05 22.03 ЮВ 5 20 км н/о +6.3 +2.6 77 +2 +2 по сезону 1004.8 1001.7
06 22.03 ЮВ 6 17 км н/о +6.3 +2.7 78 +2 +2 по сезону 1004.1 1001.0 +4.5
08 22.03 ЮВ 8 15 км слаб. ливневой дождь н/о +7.1 +4.2 82 +2 +2 по сезону 1003.9 1000.9
07 22.03 ЮВ 6 19 км н/о +6.7 +3.0 77 +2 +2 по сезону 1003.7 1000.7
09 22.03 Ю 8
{14}
11 км дождь н/о +6.7 +5.0 89 +1 +1 прохладно 1004.2 1001.2
10 22.03 ЮВ 8
{13}
13 км слаб. дождь н/о +6.9 +5.2 89 +2 +2 по сезону 1004.2 1001.1
11 22.03 ЮВ 7
{13}
11 км дождь н/о +6.8 +5.6 92 +2 +2 прохладно 1004.5 1001.4
12 22.03 Ю 7 12 км слаб. морось с дождем н/о +8.6 +6.2 85 +4 +4 прохладно 1004.6 1001.5 2
13 22.03 ЮЗ 5
{14}
45 км в посл. час дождь н/о +7.6 +5.8 88 +4 +4 по сезону 1005.5 1002.5
14 22.03 Ю 6 35 км н/о +10.6 +5.6 71 +7 +7 по сезону 1005.6 1002.6
15 22.03 Ю 5 45 км н/о +10.3 +4.3 66 +7 +7 по сезону 1005.9 1002.9
16 22.03 Ю 6 50 км н/о +10.1 +2.6 60 +7 +7 тепло 1006.4 1003.4
17 22.03 З 3 45 км н/о +9.8 +3.9 67 +8 +8 тепло 1006.9 1003.9
18 22.03 Ю 4 40 км н/о +9.3 +3.4 67 +7 +7 по сезону 1007.8 1004.7 +11.3 3
19 22.03 Ю 4 45 км н/о +7.9 +3.1 72 +5 +5 тепло 1008.8 1005.7
20 22.03 ЮВ 3 40 км н/о +6.9 +3.9 81 +4 +4 по сезону 1009.6 1006.6
21 22.03 ЮВ 3 30 км н/о +5.8 +4.0 88 +3 +3 по сезону 1010.3 1007.2
22 22.03 В 2 24 км н/о +6.1 +4.9 92 +4 +4 тепло 1010.6 1007.6
23 22.03 СВ 2 21 км н/о +6.4 +5.1 91 +4 +4 по сезону 1010.8 1007.8
00 23.03 В 2 17 км слаб. ливневой дождь н/о +6.7 +4.7 87 +4 +4 по сезону 1011.0 1008.0
01 23.03 СВ 3 16 км слаб. дождь н/о +6.4 +5.1 91 +3 +3 тепло 1011.2 1008.1
02 23.03 СВ 2 5000 м дождь н/о +6.1 +5.3 95 +3 +3 по сезону 1011.4 1008.3
03 23.03 С 2 3700 м дождь н/о +6.1 +5.6 97 +4 +4 по сезону 1011.1 1008.0
04 23.03 СВ 4 8000 м слаб. морось н/о +6.9 +6.2 95 +3 +3 тепло 1011.2 1008.1
05 23.03 В 5 8000 м слаб. морось н/о +7.1 +5.8 91 +3 +3 по сезону 1011.3 1008.2
06 23.03 СВ 4 8000 м слаб. ливневой дождь н/о +7.1 +5.7 91 +4 +4 по сезону 1011.8 1008.7 +5.3 3
07 23.03 СВ 5 8000 м в посл. час дождь н/о +7.3 +5.7 90 +3 +3 по сезону 1012.6 1009.5
08 23.03 В 5 8000 м дым н/о +7.9 +5.8 87 +4 +4 по сезону 1013.7 1010.7
09 23.03 В 6 10 км дым н/о +8.6 +5.4 80 +5 +5 по сезону 1014.8 1011.7
11 23.03 СВ 5 16 км н/о +10.3 +5.1 70 +7 +7 тепло 1014.9 1011.9
10 23.03 СВ 5 11 км в посл. час дождь н/о +9.5 +5.7 77 +6 +6 по сезону 1014.9 1011.8
12 23.03 В 7-12
{13}
26 км н/о +11.5 +5.0 64 +9 +9 по сезону 1015.2 1012.2
13 23.03 В 8
{14}
15 км н/о +11.1 +4.0 62 +8 +8 тепло 1015.5 1012.5
14 23.03 СВ 7-12
{13}
16 км н/о +11.0 +3.0 58 +8 +8 по сезону 1015.6 1012.5
15 23.03 В 8-14
{15}
17 км н/о +11.4 +4.1 61 +8 +8 по сезону 1015.4 1012.3
17 23.03 В 9-15
{15}
24 км н/о +10.9 +2.4 56 +7 +7 тепло 1017.1 1014.0
16 23.03 В 9-15
{15}
18 км н/о +11.4 +2.9 56 +8 +8 тепло 1016.1 1013.0
18 23.03 СВ 6 18 км н/о +10.3 +3.2 61 +7 +7 по сезону 1018.1 1015.0 +11.7
19 23.03 СВ 6-12
{13}
17 км н/о +9.1 +3.5 68 +6 +6 тепло 1018.6 1015.5
20 23.03 СВ 6 14 км н/о +8.2 +3.9 74 +4 +4 по сезону 1019.5 1016.4
21 23.03 СВ 6 13 км н/о +7.6 +4.0 78 +4 +4 по сезону 1020.8 1017.7
23 23.03 СВ 5 9000 м дым н/о +7.1 +4.6 84 +3 +3 тепло 1022.2 1019.1
22 23.03 СВ 6 10 км н/о +7.1 +4.4 83 +3 +3 по сезону 1021.8 1018.7
00 24.03 СВ 5 9000 м дым н/о +7.1 +4.7 85 +3 +3 по сезону 1022.8 1019.7
01 24.03 СВ 6 9000 м дым н/о +6.8 +4.6 86 +2 +2 тепло 1023.5 1020.4
02 24.03 СВ 5 8000 м дым н/о +6.8 +4.7 86 +3 +3 по сезону 1023.7 1020.6
03 24.03 СВ 5 7000 м дым н/о +6.7 +4.7 87 +2 +2 по сезону 1023.5 1020.4
05 24.03 СВ 5 7000 м дым н/о +7.1 +4.7 85 +3 +3 тепло 1024.6 1021.5
04 24.03 СВ 4 7000 м дым н/о +6.9 +4.8 86 +3 +3 по сезону 1023.9 1020.8
06 24.03 СВ 5 7000 м дым н/о +7.3 +4.7 84 +4 +4 по сезону 1025.7 1022.6 +6.7
07 24.03 СВ 5 6000 м дым н/о +7.5 +4.9 84 +4 +4 тепло 1026.5 1023.4
08 24.03 СВ 4 6000 м дым н/о +7.8 +5.1 83 +4 +4 по сезону 1027.5 1024.4
09 24.03 СВ 6 6000 м дым н/о +8.0 +5.4 84 +4 +4 по сезону 1028.1 1024.9
10 24.03 СВ 6 6000 м дым н/о +8.5 +5.7 83 +5 +5 по сезону 1028.1 1025.0
11 24.03 СВ 6 6000 м дым н/о +9.3 +5.7 78 +6 +6 по сезону 1028.8 1025.7
12 24.03 В 5 7000 м дым н/о +10.0 +5.9 76 +7 +7 по сезону 1029.7 1026.6
13 24.03 СВ 5 7000 м дым н/о +11.0 +6.7 75 +8 +8 тепло 1029.7 1026.6
14 24.03 СВ 5 9000 м дым н/о +11.6 +5.7 67 +9 +9 тепло 1029.6 1026.5
15 24.03 СВ 6 11 км н/о +12.8 +6.2 64 +11 +11 тепло 1029.4 1026.3
16 24.03 СВ 6 15 км н/о +13.2 +5.5 60 +11 +11 тепло 1029.3 1026.2
17 24.03 СВ 7 35 км н/о +13.1 +4.2 55 +11 +11 тепло 1029.2 1026.1
18 24.03 СВ 6 35 км н/о +11.9 +3.3 56 +9 +9 по сезону 1029.7 1026.6 +13.5
19 24.03 СВ 3 21 км н/о +10.6 +3.9 63 +9 +9 тепло 1030.7 1027.6
20 24.03 СВ 6 16 км н/о +9.3 +4.1 70 +6 +6 тепло 1031.8 1028.7
21 24.03 СВ 4 15 км н/о +8.2 +3.4 72 +5 +5 по сезону 1031.8 1028.7
22 24.03 СВ 3 15 км н/о +7.2 +3.0 75 +4 +4 тепло 1032.5 1029.4
23 24.03 СВ 4 16 км н/о +6.7 +3.0 77 +3 +3 по сезону 1032.5 1029.4
00 25.03 СВ 4 17 км н/о +6.1 +2.8 79 +2 +2 по сезону 1032.5 1029.3
01 25.03 СВ 4 16 км н/о +5.9 +3.0 82 +2 +2 тепло 1032.4 1029.3
02 25.03 СВ 3 15 км н/о +5.3 +2.8 84 +2 +2 по сезону 1031.9 1028.7
03 25.03 СВ 3 13 км н/о +5.1 +2.8 85 +2 +2 по сезону 1031.7 1028.5
04 25.03 СВ 5 13 км н/о +5.3 +2.8 84 +1 +1 тепло 1031.5 1028.3
05 25.03 СВ 3 15 км н/о +4.7 +2.3 84 +1 +1 по сезону 1031.3 1028.2
06 25.03 СВ 4 13 км н/о +4.6 +2.2 84 0 0 прохладно 1031.4 1028.2 +4.6
08 25.03 СВ 4 18 км н/о +7.5 +3.1 74 +4 +4 тепло 1031.6 1028.5
07 25.03 С 2 16 км н/о +4.7 +2.3 84 +3 +3 по сезону 1031.5 1028.4
09 25.03 СВ 5 19 км н/о +9.6 +2.7 62 +7 +7 по сезону 1031.2 1028.1
10 25.03 СВ 5 21 км н/о +11.5 +2.2 53 +9 +9 тепло 1030.9 1027.8
11 25.03 СВ 7 18 км н/о +12.9 +1.9 47 +11 +11 тепло 1030.2 1027.1
12 25.03 СВ 7
{13}
20 км н/о +14.1 -0.2 37 +12 +12 тепло 1029.5 1026.5
14 25.03 СВ 7 27 км н/о +15.1 -2.7 29 +14 +14 тепло 1027.9 1024.8
13 25.03 СВ 8
{13}
26 км н/о +14.3 -1.9 33 +12 +12 тепло 1028.8 1025.7
15 25.03 СВ 6-11
{13}
35 км н/о +14.7 -2.0 32 +13 +13 тепло 1027.2 1024.2
16 25.03 СВ 7-13
{13}
30 км н/о +14.8 -4.7 26 +13 +13 тепло 1026.4 1023.4
17 25.03 СВ 6
{13}
35 км н/о +14.1 -4.6 27 +12 +12 тепло 1025.8 1022.8
18 25.03 СВ 5 50 км н/о +12.7 -6.0 27 +11 +11 тепло 1025.9 1022.8 +15.4
20 25.03 СВ 5 50 км н/о +9.8 -7.1 30 +8 +8 тепло 1026.1 1023.0
19 25.03 СВ 5 50 км н/о +10.9 -6.1 30 +9 +9 тепло 1026.2 1023.1
21 25.03 СВ 6 50 км н/о +8.9 -7.3 31 +6 +6 по сезону 1026.0 1022.9
22 25.03 СВ 5 50 км н/о +8.1 -7.1 33 +5 +5 тепло 1025.9 1022.8
23 25.03 СВ 4 50 км н/о +7.3 -6.6 37 +5 +5 тепло 1026.0 1022.9
00 26.03 СВ 3 50 км н/о +6.7 -5.6 41 +4 +4 по сезону 1026.0 1022.8
02 26.03 СВ 1 45 км н/о +5.5 -1.9 59 +5 +5 тепло 1025.3 1022.2
01 26.03 СВ 5 50 км н/о +6.2 -3.7 49 +2 +2 по сезону 1025.3 1022.1
03 26.03 СВ 3 35 км н/о +5.5 -0.1 67 +3 +3 по сезону 1024.8 1021.6
04 26.03 СВ 4 30 км н/о +5.6 +1.7 76 +2 +2 тепло 1024.7 1021.5
05 26.03 СВ 4 21 км н/о +5.5 +2.4 80 +2 +2 по сезону 1024.5 1021.4
06 26.03 СВ 3 16 км н/о +5.5 +3.3 86 +2 +2 по сезону 1024.7 1021.6 +5.3
08 26.03 СВ 4 14 км н/о +7.4 +5.3 87 +4 +4 тепло 1024.7 1021.6
07 26.03 СВ 3 14 км н/о +6.3 +4.4 88 +3 +3 по сезону 1024.7 1021.5
09 26.03 СВ 7 16 км н/о +9.7 +5.9 77 +6 +6 по сезону 1024.8 1021.7
10 26.03 В 5 28 км н/о +11.7 +5.3 65 +9 +9 тепло 1024.5 1021.5
11 26.03 В 6 23 км н/о +13.9 +5.3 56 +12 +12 тепло 1024.2 1021.1
12 26.03 В 6 30 км н/о +15.2 +5.7 53 +14 +14 тепло 1024.0 1021.0
13 26.03 В 6 45 км н/о +15.6 +5.0 49 +14 +14 тепло 1023.5 1020.5
14 26.03 В 8
{13}
26 км н/о +15.2 +4.8 50 +13 +13 тепло 1023.6 1020.6
15 26.03 В 6 50 км н/о +15.9 +5.3 49 +15 +15 тепло 1023.1 1020.1
16 26.03 В 6 35 км н/о +14.4 +4.3 51 +13 +13 тепло 1022.8 1019.7
17 26.03 В 6 40 км н/о +13.2 +4.2 54 +11 +11 тепло 1022.8 1019.8
18 26.03 В 6 40 км н/о +12.1 +4.5 60 +10 +10 тепло 1022.8 1019.7 +16.2
19 26.03 В 6 50 км н/о +11.2 +4.5 63 +8 +8 тепло 1023.1 1020.0
20 26.03 В 5 40 км н/о +10.2 +4.7 69 +7 +7 тепло 1023.5 1020.4
21 26.03 В 3 50 км н/о +9.7 +4.1 68 +8 +8 по сезону 1024.2 1021.1
22 26.03 В 4 24 км н/о +8.1 +4.0 75 +5 +5 тепло 1024.6 1021.5
23 26.03 СВ 3 21 км н/о +8.1 +4.5 78 +5 +5 тепло 1024.3 1021.2
00 27.03 СВ 2 21 км н/о +7.2 +3.4 77 +5 +5 по сезону 1024.2 1021.1
01 27.03 СВ 3 14 км н/о +6.4 +3.6 82 +4 +4 тепло 1023.9 1020.7
02 27.03 СВ 3 10 км н/о +6.8 +4.5 85 +4 +4 тепло 1023.4 1020.3
03 27.03 СВ 3 7000 м дым н/о +6.6 +4.8 88 +3 +3 по сезону 1023.3 1020.2
04 27.03 СВ 3 4300 м дым н/о +6.4 +5.3 93 +3 +3 тепло 1023.4 1020.3
05 27.03 В 4 3800 м дымка н/о +6.6 +5.7 94 +3 +3 по сезону 1023.1 1020.0
06 27.03 В 3 3800 м дым н/о +6.8 +5.6 92 +4 +4 по сезону 1023.4 1020.2 +6.3
07 27.03 СВ 3 4400 м дым н/о +7.1 +5.5 90 +4 +4 тепло 1023.4 1020.3
08 27.03 СВ 4 4800 м дым н/о +7.6 +5.8 88 +4 +4 по сезону 1023.3 1020.2
09 27.03 СВ 4 5000 м дым н/о +8.0 +5.5 84 +5 +5 по сезону 1023.5 1020.4
11 27.03 СВ 4 7000 м дым н/о +12.1 +6.8 70 +10 +10 тепло 1023.0 1019.9
10 27.03 СВ 3 7000 м дым н/о +10.2 +5.9 75 +8 +8 по сезону 1023.3 1020.2
12 27.03 В 4 9000 м дым н/о +13.8 +6.9 63 +13 +13 тепло 1022.2 1019.1
13 27.03 В 4 9000 м дым н/о +15.0 +6.3 56 +14 +14 тепло 1021.6 1018.6
14 27.03 В 5 13 км н/о +15.3 +5.2 51 +14 +14 тепло 1021.0 1018.0
15 27.03 В 4 12 км н/о +15.9 +6.0 52 +15 +15 тепло 1020.1 1017.1

 

Местоположение метеостанции London (Великобритания): широта 51.48 долгота -0.45 высота над уровнем моря 25 м.

В архиве по умолчанию представлена погода в London за последнюю неделю. Архивные данные за месяц целиком и за предыдущие месяцы, начиная с января 2011 года, Вы можете получить, выбрав интересующий диапазон дат из раскрывающегося списка и нажав кнопку "Ввод!".

Внимание! Время в таблицах - всемирное. Для получения местного времени необходимо прибавить поправку, которая в London равна 0 ч.

Смотрите также архив погоды в соседних городах и на ближайших метеорологических станциях:

Погода в Northolt (Великобритания) (8 км)
Погода в London, St James Park (Великобритания) (23 км)
Погода в Charlwood (Великобритания) (28 км)
Погода в Farnborough (Великобритания) (31 км)
Погода в Kenley Airfield (Великобритания) (33 км)
Погода в High Wycombe Hqstc (Великобритания) (33 км)
Погода в Odiham (Великобритания) (44 км)
Погода в Benson (Великобритания) (46 км)
Погода в Gravesend-Broadness (Великобритания) (52 км)
Погода в Rothamsted (Великобритания) (66 км)

Пояснения к столбцам:

Ветер - указаны скорость ветра в м/с - средняя за 10 мин, порывы в срок и между сроками (в фигурных скобках) и направление, откуда дует ветер: С - северный, СВ - северо-восточный, В - восточный, ЮВ - юго-восточный, Ю - южный, ЮЗ - юго-западный, З - западный, СЗ - северо-западный.
Видимость - горизонтальная дальность видимости в метрах или километрах. При видимости от 1 до 10 км при отсутствии осадков обычно наблюдается дымка, при ухудшении видимости до 1 км и менее - туман. В сухую погоду видимость может ухудшаться дымом, пылью или мглою.
Явления - указаны атмосферные явления, наблюдавшиеся в срок или в последний час перед сроком; фигурными скобками обозначены явления, наблюдавшиеся между сроками (за 1-3 часа до срока); квадратными скобками обозначены град или гололедные отложения с указанием их диаметра в мм.
Облачность - указаны через наклонную черту общая и нижняя облачность в баллах и высота нижней границы облаков в метрах; квадратными скобками обозначены формы облаков: Ci - перистые, Cs - перисто-слоистые, Cc - перисто-кучевые, Ac - высококучевые, As - высокослоистые, Sc - слоисто-кучевые, Ns - слоисто-дождевые, Cu - кучевые, Cb - кучево-дождевые. Подробнее классификацию облаков см. в Атласе облаков (PDF).
T - Температура воздуха - температура, измеренная на высоте 2 м над землей.
Td - Температура точки росы - температура, при понижении до которой содержащийся в воздухе водяной пар достигнет насыщения.
f - Относительная влажность воздуха - влажноcть воздуха, измеренная на высоте 2 м над землей.
Te - Эффективная температура - температура, которую ощущает одетый по сезону человек в тени. Характеристика душности погоды. При расчете учитывается влияние влажности воздуха и скорости ветра на теплоощущения человека.
Tes - Эффективная температура на солнце - температура, которую ощущает человек, с поправкой на солнечный нагрев. Характеристика знойности погоды. Зависит от высоты солнца над горизонтом, облачности и скорости ветра. Ночью, в пасмурную погоду, а также при ветре 12 м/с и более поправка равна нулю.
P - Атмосферное давление - приведенное к уровню моря атмосферное давление.
Po - Атмосферное давление - измеренное на уровне метеостанции атмосферное давление.
Tmin - Минимальная температура - минимум температуры воздуха на высоте 2 м над землей.
Tmax - Максимальная температура - максимум температуры воздуха на высоте 2 м над землей.
R - Количество осадков - Количество выпавших осадков, мм. При наведении курсора мыши на число - период времени, за который выпало указанное количество осадков.
S - Снежный покров - Высота снежного покрова, см. При наведении курсора мыши на число - состояние снежного покрова и степень покрытия местности в баллах.